| time (UTC) | temp C | wind direction | speed KPH | gust KPH | rain 1hr cm | rain 24hr cm | rain mn cm | humidity % | barometer mb |
| 20260507060530 | 1 | 0 | 0.0 | 0.0 | 0.00 | 0.00 | 0.00 | 65 | 1013.0 |
| 20260507060044 | 1 | 0 | 0.0 | 0.0 | 0.00 | 0.00 | 0.00 | 64 | 1013.1 |
| 20260507055532 | 1 | 0 | 0.0 | 0.0 | 0.00 | 0.00 | 0.00 | 64 | 1013.1 |
| 20260507055031 | 2 | 0 | 0.0 | 0.0 | 0.00 | 0.00 | 0.00 | 64 | 1013.2 |
| 20260507054551 | 2 | 0 | 0.0 | 0.0 | 0.00 | 0.00 | 0.00 | 64 | 1013.3 |
| 20260507054030 | 2 | 0 | 0.0 | 0.0 | 0.00 | 0.00 | 0.00 | 64 | 1013.3 |
| 20260507053530 | 2 | 0 | 0.0 | 0.0 | 0.00 | 0.00 | 0.00 | 64 | 1013.4 |
| 20260507053045 | 2 | 0 | 0.0 | 0.0 | 0.00 | 0.00 | 0.00 | 63 | 1013.5 |
| 20260507052529 | 2 | 0 | 0.0 | 0.0 | 0.00 | 0.00 | 0.00 | 63 | 1013.5 |
| 20260507052030 | 2 | 0 | 0.0 | 0.0 | 0.00 | 0.00 | 0.00 | 64 | 1013.6 |
| 20260507051541 | 2 | 0 | 0.0 | 0.0 | 0.00 | 0.00 | 0.00 | 65 | 1013.7 |
| 20260507051029 | 2 | 0 | 0.0 | 0.0 | 0.00 | 0.00 | 0.00 | 65 | 1013.7 |
| 20260507050529 | 2 | 0 | 0.0 | 0.0 | 0.00 | 0.00 | 0.00 | 66 | 1013.8 |
| 20260507050047 | 2 | 0 | 0.0 | 0.0 | 0.00 | 0.00 | 0.00 | 66 | 1013.8 |
| 20260507045529 | 2 | 0 | 0.0 | 0.0 | 0.00 | 0.00 | 0.00 | 65 | 1013.7 |
| 20260507045031 | 2 | 0 | 0.0 | 0.0 | 0.00 | 0.00 | 0.00 | 64 | 1013.8 |
| 20260507044536 | 3 | 0 | 0.0 | 0.0 | 0.00 | 0.00 | 0.00 | 63 | 1013.8 |
| 20260507044031 | 3 | 0 | 0.0 | 0.0 | 0.00 | 0.00 | 0.00 | 62 | 1013.9 |
| 20260507043531 | 3 | 0 | 0.0 | 0.0 | 0.00 | 0.00 | 0.00 | 63 | 1013.9 |
| 20260507043044 | 2 | 0 | 0.0 | 0.0 | 0.00 | 0.00 | 0.00 | 64 | 1014.0 |
| 20260507042531 | 2 | 0 | 0.0 | 0.0 | 0.00 | 0.00 | 0.00 | 66 | 1014.1 |
| 20260507042031 | 3 | 0 | 0.0 | 0.0 | 0.00 | 0.00 | 0.00 | 67 | 1014.1 |
| 20260507041543 | 3 | 0 | 0.0 | 0.0 | 0.00 | 0.00 | 0.00 | 65 | 1014.2 |
| 20260507041031 | 3 | 0 | 0.0 | 0.0 | 0.00 | 0.00 | 0.00 | 63 | 1014.2 |
| 20260507040531 | 3 | 0 | 0.0 | 0.0 | 0.00 | 0.00 | 0.00 | 62 | 1014.3 |
| 20260507040051 | 4 | 0 | 0.0 | 0.0 | 0.00 | 0.00 | 0.00 | 61 | 1014.2 |
| 20260507035530 | 4 | 0 | 0.0 | 0.0 | 0.00 | 0.00 | 0.00 | 59 | 1014.4 |
| 20260507035031 | 5 | 0 | 0.0 | 0.0 | 0.00 | 0.00 | 0.00 | 58 | 1014.4 |
| 20260507034544 | 5 | 0 | 0.0 | 0.0 | 0.00 | 0.00 | 0.00 | 58 | 1014.4 |
| 20260507034031 | 5 | 0 | 0.0 | 0.0 | 0.00 | 0.00 | 0.00 | 58 | 1014.4 |
| 20260507033533 | 5 | 0 | 0.0 | 0.0 | 0.00 | 0.00 | 0.00 | 57 | 1014.5 |
| 20260507033040 | 5 | 0 | 0.0 | 0.0 | 0.00 | 0.00 | 0.00 | 57 | 1014.5 |
| 20260507032532 | 5 | 0 | 0.0 | 0.0 | 0.00 | 0.00 | 0.00 | 57 | 1014.5 |
| 20260507032032 | 5 | 0 | 0.0 | 0.0 | 0.00 | 0.00 | 0.00 | 56 | 1014.6 |
| 20260507031537 | 5 | 0 | 0.0 | 0.0 | 0.00 | 0.00 | 0.00 | 55 | 1014.6 |
| 20260507031033 | 5 | 0 | 0.0 | 1.6 | 0.00 | 0.00 | 0.00 | 54 | 1014.6 |
| 20260507030532 | 5 | 0 | 0.0 | 1.6 | 0.00 | 0.00 | 0.00 | 53 | 1014.6 |
| 20260507030036 | 5 | 0 | 0.0 | 0.0 | 0.00 | 0.00 | 0.00 | 52 | 1014.6 |
| 20260507025530 | 5 | 0 | 0.0 | 0.0 | 0.00 | 0.00 | 0.00 | 55 | 1014.6 |
| 20260507025031 | 6 | 0 | 0.0 | 1.6 | 0.00 | 0.00 | 0.00 | 54 | 1014.6 |
| 20260507024542 | 6 | 0 | 0.0 | 1.6 | 0.00 | 0.00 | 0.00 | 52 | 1014.7 |
| 20260507024031 | 6 | 0 | 0.0 | 1.6 | 0.00 | 0.00 | 0.00 | 49 | 1014.6 |
| 20260507023530 | 6 | 0 | 0.0 | 0.0 | 0.00 | 0.00 | 0.00 | 48 | 1014.6 |
| 20260507023040 | 6 | 0 | 0.0 | 0.0 | 0.00 | 0.00 | 0.00 | 48 | 1014.6 |
| 20260507022531 | 6 | 0 | 0.0 | 0.0 | 0.00 | 0.00 | 0.00 | 47 | 1014.7 |
| 20260507022031 | 7 | 0 | 0.0 | 0.0 | 0.00 | 0.00 | 0.00 | 47 | 1014.7 |
| 20260507021541 | 7 | 0 | 0.0 | 0.0 | 0.00 | 0.00 | 0.00 | 48 | 1014.6 |
| 20260507021030 | 7 | 0 | 0.0 | 0.0 | 0.00 | 0.00 | 0.00 | 48 | 1014.6 |
| 20260507020532 | 7 | 0 | 0.0 | 1.6 | 0.00 | 0.00 | 0.00 | 49 | 1014.6 |
| 20260507020039 | 8 | 0 | 0.0 | 1.6 | 0.00 | 0.00 | 0.00 | 50 | 1014.6 |
| 20260507015531 | 8 | 0 | 0.0 | 0.0 | 0.00 | 0.00 | 0.00 | 49 | 1014.6 |
| 20260507015031 | 8 | 0 | 0.0 | 1.6 | 0.00 | 0.00 | 0.00 | 50 | 1014.6 |
| 20260507014559 | 8 | 0 | 0.0 | 3.2 | 0.00 | 0.00 | 0.00 | 51 | 1014.6 |
| 20260507014035 | 9 | 0 | 0.0 | 4.8 | 0.00 | 0.00 | 0.00 | 51 | 1014.5 |
| 20260507013536 | 9 | 286 | 1.6 | 6.4 | 0.00 | 0.00 | 0.00 | 50 | 1014.6 |
| 20260507013043 | 9 | 286 | 1.6 | 6.4 | 0.00 | 0.00 | 0.00 | 51 | 1014.6 |
| 20260507012533 | 10 | 296 | 3.2 | 6.4 | 0.00 | 0.00 | 0.00 | 52 | 1014.6 |
| 20260507012033 | 10 | 286 | 3.2 | 6.4 | 0.00 | 0.00 | 0.00 | 50 | 1014.6 |
| 20260507011553 | 10 | 306 | 3.2 | 8.0 | 0.00 | 0.00 | 0.00 | 51 | 1014.6 |
| 20260507011029 | 10 | 253 | 3.2 | 8.0 | 0.00 | 0.00 | 0.00 | 50 | 1014.6 |
| 20260507010533 | 10 | 302 | 3.2 | 12.9 | 0.00 | 0.00 | 0.00 | 53 | 1014.6 |
| 20260507010042 | 11 | 284 | 4.8 | 12.9 | 0.00 | 0.00 | 0.00 | 54 | 1014.6 |
| 20260507005533 | 11 | 309 | 4.8 | 12.9 | 0.00 | 0.00 | 0.00 | 49 | 1014.6 |
| 20260507005030 | 11 | 305 | 3.2 | 12.9 | 0.00 | 0.00 | 0.00 | 50 | 1014.6 |
| 20260507004541 | 11 | 296 | 1.6 | 16.1 | 0.00 | 0.00 | 0.00 | 51 | 1014.8 |
| 20260507004033 | 11 | 292 | 8.0 | 16.1 | 0.00 | 0.00 | 0.00 | 47 | 1014.8 |
| 20260507003537 | 11 | 308 | 6.4 | 16.1 | 0.00 | 0.00 | 0.00 | 47 | 1014.7 |
| 20260507003049 | 12 | 284 | 8.0 | 14.5 | 0.00 | 0.00 | 0.00 | 45 | 1014.7 |
| 20260507002533 | 12 | 282 | 6.4 | 14.5 | 0.00 | 0.00 | 0.00 | 51 | 1014.8 |
| 20260507002030 | 12 | 297 | 9.7 | 14.5 | 0.00 | 0.00 | 0.00 | 46 | 1014.8 |
| 20260507001550 | 12 | 288 | 4.8 | 16.1 | 0.00 | 0.00 | 0.00 | 47 | 1014.9 |
| 20260507001029 | 12 | 277 | 9.7 | 16.1 | 0.00 | 0.00 | 0.00 | 40 | 1015.0 |
| 20260507000530 | 12 | 284 | 8.0 | 14.5 | 0.00 | 0.00 | 0.00 | 44 | 1015.0 |
| 20260507000058 | 12 | 293 | 8.0 | 16.1 | 0.00 | 0.00 | 0.00 | 45 | 1015.0 |
| 20260506235532 | 12 | 305 | 4.8 | 19.3 | 0.00 | 0.00 | 0.00 | 46 | 1015.1 |
| 20260506235031 | 12 | 317 | 11.3 | 24.1 | 0.00 | 0.00 | 0.00 | 45 | 1015.1 |
| 20260506234552 | 12 | 323 | 9.7 | 24.1 | 0.00 | 0.00 | 0.00 | 44 | 1015.0 |
| 20260506234030 | 13 | 329 | 9.7 | 24.1 | 0.00 | 0.00 | 0.00 | 41 | 1015.1 |
| 20260506233534 | 13 | 313 | 4.8 | 24.1 | 0.00 | 0.00 | 0.00 | 40 | 1015.1 |
| 20260506233048 | 13 | 286 | 11.3 | 20.9 | 0.00 | 0.00 | 0.00 | 42 | 1015.1 |
| 20260506232529 | 13 | 263 | 8.0 | 17.7 | 0.00 | 0.00 | 0.00 | 42 | 1015.2 |
| 20260506232033 | 12 | 309 | 9.7 | 17.7 | 0.00 | 0.00 | 0.00 | 40 | 1015.2 |
| 20260506231549 | 13 | 254 | 11.3 | 17.7 | 0.00 | 0.00 | 0.00 | 40 | 1015.3 |
| 20260506231030 | 13 | 296 | 3.2 | 16.1 | 0.00 | 0.00 | 0.00 | 42 | 1015.3 |
| 20260506230530 | 13 | 292 | 8.0 | 24.1 | 0.00 | 0.00 | 0.00 | 39 | 1015.3 |
| 20260506230048 | 12 | 291 | 11.3 | 24.1 | 0.00 | 0.00 | 0.00 | 41 | 1015.3 |
| 20260506225531 | 12 | 254 | 12.9 | 20.9 | 0.00 | 0.00 | 0.00 | 41 | 1015.4 |
| 20260506225033 | 13 | 325 | 9.7 | 17.7 | 0.00 | 0.00 | 0.00 | 43 | 1015.4 |
| 20260506224543 | 13 | 339 | 8.0 | 17.7 | 0.00 | 0.00 | 0.00 | 38 | 1015.5 |
| 20260506224030 | 13 | 269 | 8.0 | 22.5 | 0.00 | 0.00 | 0.00 | 40 | 1015.5 |
| 20260506223530 | 13 | 266 | 9.7 | 24.1 | 0.00 | 0.00 | 0.00 | 40 | 1015.6 |
| 20260506223041 | 13 | 259 | 11.3 | 24.1 | 0.00 | 0.00 | 0.00 | 40 | 1015.6 |
| 20260506222531 | 13 | 292 | 16.1 | 24.1 | 0.00 | 0.00 | 0.00 | 39 | 1015.7 |
| 20260506222032 | 13 | 298 | 9.7 | 25.7 | 0.00 | 0.00 | 0.00 | 40 | 1015.7 |
| 20260506221539 | 13 | 277 | 9.7 | 25.7 | 0.00 | 0.00 | 0.00 | 40 | 1015.8 |
| 20260506221030 | 13 | 264 | 14.5 | 25.7 | 0.00 | 0.00 | 0.00 | 40 | 1015.8 |
| 20260506220530 | 13 | 256 | 11.3 | 24.1 | 0.00 | 0.00 | 0.00 | 39 | 1015.8 |
| 20260506220044 | 13 | 310 | 9.7 | 24.1 | 0.00 | 0.00 | 0.00 | 40 | 1015.9 |
| 20260506215531 | 13 | 244 | 16.1 | 24.1 | 0.00 | 0.00 | 0.00 | 39 | 1015.9 |
| 20260506215031 | 12 | 223 | 8.0 | 24.1 | 0.00 | 0.00 | 0.00 | 42 | 1015.9 |
| 20260506214538 | 12 | 246 | 8.0 | 22.5 | 0.00 | 0.00 | 0.00 | 41 | 1016.1 |
| 20260506214031 | 12 | 287 | 11.3 | 22.5 | 0.00 | 0.00 | 0.00 | 39 | 1016.2 |
| 20260506213532 | 12 | 291 | 14.5 | 25.7 | 0.00 | 0.00 | 0.00 | 42 | 1016.3 |
| 20260506213044 | 12 | 258 | 9.7 | 25.7 | 0.00 | 0.00 | 0.00 | 39 | 1016.4 |
| 20260506212534 | 13 | 273 | 16.1 | 24.1 | 0.00 | 0.00 | 0.00 | 42 | 1016.5 |
| 20260506212031 | 13 | 257 | 12.9 | 24.1 | 0.00 | 0.00 | 0.00 | 43 | 1016.5 |
| 20260506211544 | 13 | 271 | 8.0 | 19.3 | 0.00 | 0.00 | 0.00 | 38 | 1016.5 |
| 20260506211031 | 13 | 327 | 6.4 | 24.1 | 0.00 | 0.00 | 0.00 | 39 | 1016.6 |
| 20260506210534 | 13 | 253 | 9.7 | 24.1 | 0.00 | 0.00 | 0.00 | 42 | 1016.7 |
| 20260506210041 | 13 | 294 | 16.1 | 24.1 | 0.00 | 0.00 | 0.00 | 38 | 1016.7 |
| 20260506205531 | 13 | 240 | 11.3 | 22.5 | 0.00 | 0.00 | 0.00 | 42 | 1016.8 |
| 20260506205031 | 13 | 250 | 4.8 | 17.7 | 0.00 | 0.00 | 0.00 | 39 | 1016.8 |
| 20260506204538 | 12 | 265 | 9.7 | 22.5 | 0.00 | 0.00 | 0.00 | 40 | 1016.9 |
| 20260506204034 | 12 | 271 | 4.8 | 22.5 | 0.00 | 0.00 | 0.00 | 39 | 1017.1 |
| 20260506203533 | 13 | 211 | 14.5 | 22.5 | 0.00 | 0.00 | 0.00 | 39 | 1017.1 |
| 20260506203057 | 13 | 260 | 11.3 | 27.4 | 0.00 | 0.00 | 0.00 | 44 | 1017.1 |
| 20260506202530 | 12 | 288 | 17.7 | 27.4 | 0.00 | 0.00 | 0.00 | 43 | 1017.1 |
| 20260506202030 | 12 | 325 | 14.5 | 27.4 | 0.00 | 0.00 | 0.00 | 44 | 1017.2 |
| 20260506201536 | 12 | 331 | 14.5 | 24.1 | 0.00 | 0.00 | 0.00 | 42 | 1017.2 |
| 20260506201031 | 13 | 282 | 14.5 | 24.1 | 0.00 | 0.00 | 0.00 | 47 | 1017.2 |
| 20260506200530 | 12 | 306 | 8.0 | 24.1 | 0.00 | 0.00 | 0.00 | 40 | 1017.3 |
| 20260506200048 | 13 | 320 | 11.3 | 24.1 | 0.00 | 0.00 | 0.00 | 45 | 1017.3 |
| 20260506195531 | 12 | 264 | 8.0 | 22.5 | 0.00 | 0.00 | 0.00 | 48 | 1017.3 |
| 20260506195031 | 12 | 203 | 6.4 | 25.7 | 0.00 | 0.00 | 0.00 | 44 | 1017.5 |
| 20260506194541 | 11 | 223 | 12.9 | 27.4 | 0.00 | 0.00 | 0.00 | 46 | 1017.6 |
| 20260506194031 | 11 | 282 | 14.5 | 27.4 | 0.00 | 0.00 | 0.00 | 49 | 1017.6 |
| 20260506193530 | 11 | 284 | 12.9 | 25.7 | 0.00 | 0.00 | 0.00 | 44 | 1017.8 |
| 20260506193039 | 11 | 303 | 12.9 | 25.7 | 0.00 | 0.00 | 0.00 | 46 | 1017.8 |
| 20260506192530 | 11 | 314 | 14.5 | 29.0 | 0.00 | 0.00 | 0.00 | 49 | 1017.8 |
| 20260506192030 | 11 | 238 | 19.3 | 29.0 | 0.00 | 0.00 | 0.00 | 47 | 1017.8 |
| 20260506191538 | 11 | 312 | 6.4 | 29.0 | 0.00 | 0.00 | 0.00 | 45 | 1017.8 |
| 20260506191030 | 11 | 267 | 17.7 | 30.6 | 0.00 | 0.00 | 0.00 | 44 | 1018.0 |
| 20260506190529 | 11 | 263 | 11.3 | 30.6 | 0.00 | 0.00 | 0.00 | 43 | 1017.9 |
| 20260506190049 | 11 | 270 | 17.7 | 30.6 | 0.00 | 0.00 | 0.00 | 42 | 1018.0 |
| 20260506185531 | 12 | 296 | 14.5 | 27.4 | 0.00 | 0.00 | 0.00 | 38 | 1017.9 |
| 20260506185031 | 12 | 312 | 17.7 | 27.4 | 0.00 | 0.00 | 0.00 | 42 | 1018.1 |
| 20260506184543 | 11 | 281 | 16.1 | 25.7 | 0.00 | 0.00 | 0.00 | 44 | 1018.1 |
| 20260506184032 | 11 | 276 | 12.9 | 24.1 | 0.00 | 0.00 | 0.00 | 40 | 1018.2 |
| 20260506183531 | 12 | 263 | 14.5 | 24.1 | 0.00 | 0.00 | 0.00 | 39 | 1018.2 |
| 20260506183042 | 12 | 257 | 12.9 | 29.0 | 0.00 | 0.00 | 0.00 | 38 | 1018.2 |
| 20260506182531 | 11 | 276 | 14.5 | 29.0 | 0.00 | 0.00 | 0.00 | 44 | 1018.3 |
| 20260506182031 | 11 | 279 | 8.0 | 27.4 | 0.00 | 0.00 | 0.00 | 42 | 1018.3 |
| 20260506181539 | 12 | 263 | 16.1 | 27.4 | 0.00 | 0.00 | 0.00 | 42 | 1018.4 |
| 20260506181033 | 11 | 269 | 17.7 | 27.4 | 0.00 | 0.00 | 0.00 | 42 | 1018.4 |
| 20260506180533 | 11 | 237 | 11.3 | 27.4 | 0.00 | 0.00 | 0.00 | 38 | 1018.4 |
| 20260506180040 | 11 | 271 | 14.5 | 29.0 | 0.00 | 0.00 | 0.00 | 42 | 1018.6 |
| 20260506175531 | 11 | 329 | 14.5 | 29.0 | 0.00 | 0.00 | 0.00 | 39 | 1018.6 |
| 20260506175030 | 11 | 327 | 9.7 | 25.7 | 0.00 | 0.00 | 0.00 | 45 | 1018.7 |
| 20260506174538 | 11 | 225 | 16.1 | 25.7 | 0.00 | 0.00 | 0.00 | 42 | 1018.7 |
| 20260506174030 | 11 | 350 | 16.1 | 24.1 | 0.00 | 0.00 | 0.00 | 44 | 1018.7 |
| 20260506173530 | 11 | 290 | 12.9 | 29.0 | 0.00 | 0.00 | 0.00 | 41 | 1018.7 |
| 20260506173052 | 11 | 312 | 16.1 | 29.0 | 0.00 | 0.00 | 0.00 | 45 | 1018.9 |
| 20260506172530 | 11 | 275 | 9.7 | 25.7 | 0.00 | 0.00 | 0.00 | 44 | 1018.7 |
| 20260506172031 | 10 | 343 | 12.9 | 25.7 | 0.00 | 0.00 | 0.00 | 43 | 1018.8 |
| 20260506171543 | 10 | 309 | 11.3 | 25.7 | 0.00 | 0.00 | 0.00 | 43 | 1018.8 |
| 20260506171032 | 10 | 323 | 17.7 | 25.7 | 0.00 | 0.00 | 0.00 | 43 | 1018.8 |
| 20260506170533 | 10 | 267 | 14.5 | 32.2 | 0.00 | 0.00 | 0.00 | 41 | 1018.7 |
| 20260506170041 | 11 | 271 | 14.5 | 32.2 | 0.00 | 0.00 | 0.00 | 44 | 1018.9 |
| 20260506165530 | 10 | 304 | 16.1 | 27.4 | 0.00 | 0.00 | 0.00 | 42 | 1018.9 |
| 20260506165031 | 10 | 304 | 14.5 | 27.4 | 0.00 | 0.00 | 0.00 | 45 | 1019.0 |
| 20260506164545 | 10 | 317 | 11.3 | 24.1 | 0.00 | 0.00 | 0.00 | 46 | 1019.2 |
| 20260506164030 | 9 | 307 | 12.9 | 30.6 | 0.00 | 0.00 | 0.00 | 44 | 1019.2 |
| 20260506163533 | 9 | 281 | 17.7 | 30.6 | 0.00 | 0.00 | 0.00 | 42 | 1019.2 |
| 20260506163054 | 10 | 246 | 14.5 | 25.7 | 0.00 | 0.00 | 0.00 | 43 | 1019.1 |
| 20260506162530 | 10 | 345 | 12.9 | 22.5 | 0.00 | 0.00 | 0.00 | 42 | 1019.1 |
| 20260506162030 | 10 | 275 | 11.3 | 22.5 | 0.00 | 0.00 | 0.00 | 46 | 1019.2 |
| 20260506161539 | 10 | 289 | 14.5 | 20.9 | 0.00 | 0.00 | 0.00 | 45 | 1019.2 |
| 20260506161030 | 10 | 331 | 11.3 | 27.4 | 0.00 | 0.00 | 0.00 | 44 | 1019.3 |
| 20260506160531 | 9 | 283 | 16.1 | 33.8 | 0.00 | 0.00 | 0.00 | 44 | 1019.2 |
| 20260506160037 | 9 | 258 | 19.3 | 33.8 | 0.00 | 0.00 | 0.00 | 42 | 1019.1 |
| 20260506155532 | 10 | 275 | 14.5 | 22.5 | 0.00 | 0.00 | 0.00 | 43 | 1019.1 |
| 20260506155031 | 10 | 327 | 16.1 | 25.7 | 0.00 | 0.00 | 0.00 | 40 | 1019.1 |
| 20260506154548 | 10 | 282 | 16.1 | 25.7 | 0.00 | 0.00 | 0.00 | 44 | 1019.1 |
| 20260506154031 | 9 | 347 | 12.9 | 25.7 | 0.00 | 0.00 | 0.00 | 42 | 1019.0 |
| 20260506153530 | 9 | 310 | 8.0 | 25.7 | 0.00 | 0.00 | 0.00 | 43 | 1019.1 |
| 20260506153040 | 8 | 340 | 14.5 | 24.1 | 0.00 | 0.00 | 0.00 | 46 | 1019.2 |
| 20260506152530 | 9 | 328 | 12.9 | 27.4 | 0.00 | 0.00 | 0.00 | 45 | 1019.1 |
| 20260506152031 | 9 | 290 | 16.1 | 27.4 | 0.00 | 0.00 | 0.00 | 44 | 1019.1 |
| 20260506151542 | 8 | 347 | 12.9 | 25.7 | 0.00 | 0.00 | 0.00 | 46 | 1019.0 |
| 20260506151030 | 8 | 325 | 14.5 | 25.7 | 0.00 | 0.00 | 0.00 | 46 | 1019.1 |
| 20260506150530 | 8 | 285 | 16.1 | 27.4 | 0.00 | 0.00 | 0.00 | 47 | 1019.1 |
| 20260506150038 | 8 | 360 | 16.1 | 27.4 | 0.00 | 0.00 | 0.00 | 47 | 1018.8 |
| 20260506145530 | 8 | 336 | 17.7 | 27.4 | 0.00 | 0.00 | 0.00 | 46 | 1018.8 |
| 20260506145031 | 8 | 322 | 16.1 | 22.5 | 0.00 | 0.00 | 0.00 | 48 | 1018.9 |
| 20260506144538 | 8 | 337 | 16.1 | 22.5 | 0.00 | 0.00 | 0.00 | 47 | 1018.9 |
| 20260506144030 | 8 | 337 | 11.3 | 19.3 | 0.00 | 0.00 | 0.00 | 52 | 1019.0 |
| 20260506143530 | 7 | 290 | 11.3 | 19.3 | 0.00 | 0.00 | 0.00 | 54 | 1019.1 |
| 20260506143039 | 7 | 331 | 11.3 | 19.3 | 0.00 | 0.00 | 0.00 | 56 | 1019.2 |
| 20260506142530 | 7 | 272 | 11.3 | 17.7 | 0.00 | 0.00 | 0.00 | 56 | 1019.1 |
| 20260506142031 | 7 | 298 | 11.3 | 17.7 | 0.00 | 0.00 | 0.00 | 58 | 1019.0 |
| 20260506141540 | 6 | 277 | 12.9 | 17.7 | 0.00 | 0.00 | 0.00 | 59 | 1019.1 |
| 20260506141032 | 6 | 285 | 9.7 | 16.1 | 0.00 | 0.00 | 0.00 | 61 | 1019.1 |
| 20260506140532 | 6 | 284 | 8.0 | 14.5 | 0.00 | 0.00 | 0.00 | 64 | 1019.1 |
| 20260506140049 | 5 | 267 | 9.7 | 14.5 | 0.00 | 0.00 | 0.00 | 66 | 1019.1 |
| 20260506135530 | 5 | 283 | 8.0 | 14.5 | 0.00 | 0.00 | 0.00 | 68 | 1019.0 |
| 20260506135034 | 5 | 355 | 4.8 | 12.9 | 0.00 | 0.00 | 0.00 | 72 | 1019.1 |
| 20260506134538 | 4 | 271 | 6.4 | 12.9 | 0.00 | 0.00 | 0.00 | 72 | 1019.1 |
| 20260506134030 | 3 | 305 | 6.4 | 12.9 | 0.00 | 0.00 | 0.00 | 74 | 1019.1 |
| 20260506133529 | 3 | 313 | 6.4 | 11.3 | 0.00 | 0.00 | 0.00 | 76 | 1019.1 |
| 20260506133048 | 2 | 277 | 4.8 | 11.3 | 0.00 | 0.00 | 0.00 | 78 | 1019.1 |
| 20260506132530 | 2 | 282 | 6.4 | 11.3 | 0.00 | 0.00 | 0.00 | 79 | 1019.1 |
| 20260506132034 | 1 | 298 | 4.8 | 12.9 | 0.00 | 0.00 | 0.00 | 80 | 1019.1 |
| 20260506131544 | 1 | 289 | 4.8 | 12.9 | 0.00 | 0.00 | 0.00 | 80 | 1019.1 |
| 20260506131030 | 1 | 267 | 8.0 | 12.9 | 0.00 | 0.00 | 0.00 | 80 | 1019.1 |
| 20260506130530 | 0 | 285 | 6.4 | 11.3 | 0.00 | 0.00 | 0.00 | 80 | 1019.1 |
| 20260506130042 | 0 | 287 | 4.8 | 9.7 | 0.00 | 0.00 | 0.00 | 79 | 1019.1 |
| 20260506125530 | 0 | 301 | 3.2 | 8.0 | 0.00 | 0.00 | 0.00 | 81 | 1019.1 |
| 20260506125030 | 0 | 300 | 3.2 | 11.3 | 0.00 | 0.00 | 0.00 | 82 | 1019.0 |
| 20260506124544 | 0 | 317 | 4.8 | 11.3 | 0.00 | 0.00 | 0.00 | 83 | 1018.9 |
| 20260506124030 | 0 | 284 | 4.8 | 11.3 | 0.00 | 0.00 | 0.00 | 83 | 1018.9 |
| 20260506123530 | -1 | 314 | 4.8 | 9.7 | 0.00 | 0.00 | 0.00 | 84 | 1018.8 |
| 20260506123039 | -1 | 277 | 1.6 | 4.8 | 0.00 | 0.00 | 0.00 | 84 | 1018.6 |
| 20260506122531 | -1 | 280 | 1.6 | 6.4 | 0.00 | 0.00 | 0.00 | 84 | 1018.5 |
| 20260506122031 | -1 | 267 | 3.2 | 6.4 | 0.00 | 0.00 | 0.00 | 84 | 1018.5 |
| 20260506121546 | -2 | 276 | 3.2 | 9.7 | 0.00 | 0.00 | 0.00 | 84 | 1018.4 |
| 20260506121030 | -2 | 269 | 3.2 | 9.7 | 0.00 | 0.00 | 0.00 | 84 | 1018.4 |
| 20260506120530 | -2 | 269 | 4.8 | 9.7 | 0.00 | 0.00 | 0.00 | 84 | 1018.3 |
| 20260506120044 | -2 | 267 | 3.2 | 4.8 | 0.00 | 0.00 | 0.00 | 83 | 1018.2 |
| 20260506115530 | -2 | 267 | 1.6 | 4.8 | 0.00 | 0.00 | 0.00 | 83 | 1018.1 |
| 20260506115029 | -2 | 248 | 1.6 | 4.8 | 0.00 | 0.00 | 0.00 | 83 | 1018.0 |
| 20260506114542 | -2 | 248 | 1.6 | 3.2 | 0.00 | 0.00 | 0.00 | 83 | 1018.1 |
| 20260506114031 | -2 | 0 | 0.0 | 3.2 | 0.00 | 0.00 | 0.00 | 83 | 1018.1 |
| 20260506113532 | -2 | 0 | 0.0 | 3.2 | 0.00 | 0.00 | 0.00 | 83 | 1018.0 |
| 20260506113040 | -2 | 0 | 0.0 | 3.2 | 0.00 | 0.00 | 0.00 | 83 | 1017.8 |
| 20260506112533 | -2 | 0 | 0.0 | 3.2 | 0.00 | 0.00 | 0.00 | 83 | 1017.8 |
| 20260506112030 | -2 | 0 | 0.0 | 1.6 | 0.00 | 0.00 | 0.00 | 82 | 1017.8 |
| 20260506111539 | -2 | 0 | 0.0 | 1.6 | 0.00 | 0.00 | 0.00 | 81 | 1017.7 |
| 20260506111030 | -2 | 0 | 0.0 | 0.0 | 0.00 | 0.00 | 0.00 | 81 | 1017.7 |
| 20260506110530 | -2 | 0 | 0.0 | 3.2 | 0.00 | 0.00 | 0.00 | 82 | 1017.6 |
| 20260506110041 | -2 | 0 | 0.0 | 3.2 | 0.00 | 0.00 | 0.00 | 82 | 1017.6 |
| 20260506105530 | -2 | 250 | 1.6 | 3.2 | 0.00 | 0.00 | 0.00 | 82 | 1017.6 |
| 20260506105030 | -2 | 0 | 0.0 | 1.6 | 0.00 | 0.00 | 0.00 | 82 | 1017.6 |
| 20260506104536 | -2 | 0 | 0.0 | 0.0 | 0.00 | 0.00 | 0.00 | 82 | 1017.6 |
| 20260506104030 | -2 | 0 | 0.0 | 0.0 | 0.00 | 0.00 | 0.00 | 81 | 1017.6 |
| 20260506103530 | -2 | 0 | 0.0 | 1.6 | 0.00 | 0.00 | 0.00 | 81 | 1017.5 |
| 20260506103040 | -2 | 0 | 0.0 | 3.2 | 0.00 | 0.00 | 0.00 | 80 | 1017.5 |
| 20260506102531 | -2 | 0 | 0.0 | 4.8 | 0.00 | 0.00 | 0.00 | 80 | 1017.5 |
| 20260506102034 | -1 | 250 | 1.6 | 4.8 | 0.00 | 0.00 | 0.00 | 80 | 1017.4 |
| 20260506101603 | -1 | 250 | 1.6 | 4.8 | 0.00 | 0.00 | 0.00 | 79 | 1017.5 |
| 20260506101031 | -1 | 250 | 1.6 | 4.8 | 0.00 | 0.00 | 0.00 | 79 | 1017.5 |
| 20260506100530 | -1 | 0 | 0.0 | 0.0 | 0.00 | 0.00 | 0.00 | 79 | 1017.3 |
| 20260506100039 | -1 | 0 | 0.0 | 0.0 | 0.00 | 0.00 | 0.00 | 79 | 1017.2 |
| 20260506095532 | -1 | 0 | 0.0 | 0.0 | 0.00 | 0.00 | 0.00 | 79 | 1017.1 |
| 20260506095033 | -1 | 0 | 0.0 | 0.0 | 0.00 | 0.00 | 0.00 | 78 | 1017.0 |
| 20260506094539 | -1 | 0 | 0.0 | 0.0 | 0.00 | 0.00 | 0.00 | 78 | 1017.0 |
| 20260506094032 | -1 | 0 | 0.0 | 0.0 | 0.00 | 0.00 | 0.00 | 77 | 1017.0 |
| 20260506093530 | -1 | 0 | 0.0 | 0.0 | 0.00 | 0.00 | 0.00 | 76 | 1016.9 |
| 20260506093037 | -1 | 0 | 0.0 | 0.0 | 0.00 | 0.00 | 0.00 | 76 | 1016.8 |
| 20260506092532 | -1 | 0 | 0.0 | 0.0 | 0.00 | 0.00 | 0.00 | 76 | 1016.8 |
| 20260506092030 | -1 | 0 | 0.0 | 0.0 | 0.00 | 0.00 | 0.00 | 75 | 1016.8 |
| 20260506091544 | -1 | 0 | 0.0 | 0.0 | 0.00 | 0.00 | 0.00 | 75 | 1016.8 |
| 20260506091030 | -1 | 0 | 0.0 | 1.6 | 0.00 | 0.00 | 0.00 | 74 | 1016.8 |
| 20260506090531 | 0 | 0 | 0.0 | 3.2 | 0.00 | 0.00 | 0.00 | 74 | 1016.8 |
| 20260506090049 | 0 | 0 | 0.0 | 3.2 | 0.00 | 0.00 | 0.00 | 75 | 1016.8 |
| 20260506085531 | 0 | 0 | 0.0 | 3.2 | 0.00 | 0.00 | 0.00 | 74 | 1016.8 |
| 20260506085032 | 0 | 350 | 0.0 | 3.2 | 0.00 | 0.00 | 0.00 | 74 | 1016.9 |
| 20260506084546 | 0 | 0 | 0.0 | 3.2 | 0.00 | 0.00 | 0.00 | 74 | 1016.9 |
| 20260506084031 | 0 | 351 | 0.0 | 3.2 | 0.00 | 0.00 | 0.00 | 74 | 1016.8 |
| 20260506083533 | 0 | 0 | 0.0 | 0.0 | 0.00 | 0.00 | 0.00 | 73 | 1016.8 |
| 20260506083039 | 0 | 0 | 0.0 | 3.2 | 0.00 | 0.00 | 0.00 | 73 | 1016.9 |
| 20260506082533 | 0 | 0 | 0.0 | 3.2 | 0.00 | 0.00 | 0.00 | 72 | 1016.9 |
| 20260506082030 | 0 | 347 | 0.0 | 4.8 | 0.00 | 0.00 | 0.00 | 72 | 1016.9 |
| 20260506081543 | 0 | 347 | 0.0 | 4.8 | 0.00 | 0.00 | 0.00 | 73 | 1016.8 |
| 20260506081030 | 0 | 346 | 0.0 | 3.2 | 0.00 | 0.00 | 0.00 | 73 | 1016.9 |
| 20260506080532 | 0 | 287 | 0.0 | 3.2 | 0.00 | 0.00 | 0.00 | 74 | 1016.9 |
| 20260506073041 | 0 | 0 | 0.0 | 1.6 | 0.00 | 0.00 | 0.00 | 71 | 1017.0 |
| 20260506072532 | 0 | 0 | 0.0 | 0.0 | 0.00 | 0.00 | 0.00 | 70 | 1017.0 |
| 20260506072032 | 0 | 0 | 0.0 | 0.0 | 0.00 | 0.00 | 0.00 | 71 | 1017.0 |
| 20260506071542 | 0 | 0 | 0.0 | 0.0 | 0.00 | 0.00 | 0.00 | 71 | 1017.1 |
| 20260506071029 | 0 | 0 | 0.0 | 1.6 | 0.00 | 0.00 | 0.00 | 71 | 1017.0 |
| 20260506070529 | 1 | 0 | 0.0 | 3.2 | 0.00 | 0.00 | 0.00 | 71 | 1017.0 |
| 20260506062030 | 2 | 0 | 0.0 | 0.0 | 0.00 | 0.00 | 0.00 | 62 | 1016.6 |
| 20260506061536 | 2 | 0 | 0.0 | 0.0 | 0.00 | 0.00 | 0.00 | 62 | 1016.5 |
| 20260506061033 | 2 | 0 | 0.0 | 1.6 | 0.00 | 0.00 | 0.00 | 62 | 1016.5 |